�������l�o���
Date,Time,MP-1(��Sv/h),MP-2(��Sv/h),MP-3(��Sv/h),MP-4(��Sv/h),MP-5(��Sv/h),MP-6(��Sv/h),MP-7(��Sv/h),MP-8(��Sv/h),����,����(m/s),���J
2024/05/22,00:00,0.496,0.759,0.480,0.935,0.679,0.312,0.545,0.512,�k�k��,4.4,��
2024/05/22,00:10,0.495,0.757,0.479,0.936,0.679,0.311,0.544,0.511,�k�k��,5.2,��
2024/05/22,00:20,0.497,0.760,0.479,0.935,0.681,0.311,0.545,0.510,�k�k��,5.6,��
2024/05/22,00:30,0.496,0.760,0.477,0.936,0.680,0.310,0.543,0.510,�k�k��,5.3,��
2024/05/22,00:40,0.494,0.759,0.478,0.936,0.680,0.309,0.546,0.511,�k�k��,5.8,��
2024/05/22,00:50,0.495,0.758,0.479,0.935,0.680,0.311,0.543,0.510,�k�k��,5.7,��
2024/05/22,01:00,0.496,0.760,0.479,0.935,0.680,0.311,0.546,0.510,�k�k��,6.2,��
2024/05/22,01:10,0.495,0.760,0.477,0.934,0.680,0.311,0.544,0.510,�k�k��,6.8,��
2024/05/22,01:20,0.495,0.758,0.480,0.935,0.679,0.310,0.543,0.510,�k�k��,6.5,��
2024/05/22,01:30,0.495,0.761,0.479,0.938,0.680,0.311,0.545,0.510,�k�k��,5.5,��
2024/05/22,01:40,0.496,0.760,0.480,0.936,0.678,0.311,0.543,0.512,�k�k��,5.3,��
2024/05/22,01:50,0.495,0.759,0.480,0.937,0.680,0.310,0.544,0.511,�k�k��,5.8,��
2024/05/22,02:00,0.496,0.759,0.477,0.935,0.679,0.310,0.544,0.509,�k�k��,6.1,��
2024/05/22,02:10,0.497,0.757,0.479,0.936,0.680,0.311,0.544,0.509,�k�k��,5.7,��
2024/05/22,02:20,0.496,0.760,0.479,0.934,0.680,0.312,0.544,0.509,�k,5.7,��
2024/05/22,02:30,0.496,0.758,0.479,0.933,0.680,0.310,0.546,0.511,�k�k��,6.2,��
2024/05/22,02:40,0.495,0.760,0.478,0.935,0.679,0.310,0.544,0.510,�k�k��,6.9,��
2024/05/22,02:50,0.494,0.757,0.480,0.937,0.680,0.311,0.544,0.510,�k�k��,7.1,��
2024/05/22,03:00,0.497,0.759,0.478,0.935,0.677,0.310,0.545,0.509,�k�k��,6.8,��
2024/05/22,03:10,0.496,0.758,0.480,0.935,0.679,0.311,0.546,0.509,�k�k��,6.7,��
2024/05/22,03:20,0.496,0.761,0.479,0.936,0.679,0.311,0.546,0.510,�k�k��,7.0,��
2024/05/22,03:30,0.496,0.760,0.480,0.937,0.682,0.311,0.545,0.511,�k,6.6,��
2024/05/22,03:40,0.497,0.760,0.481,0.937,0.679,0.312,0.547,0.511,�k�k��,6.8,��
2024/05/22,03:50,0.497,0.759,0.478,0.935,0.681,0.312,0.546,0.510,�k�k��,6.2,��
2024/05/22,04:00,0.495,0.759,0.479,0.934,0.681,0.311,0.545,0.509,�k�k��,6.4,��
2024/05/22,04:10,0.495,0.757,0.479,0.937,0.680,0.310,0.546,0.511,�k�k��,5.6,��
2024/05/22,04:20,0.496,0.761,0.479,0.933,0.679,0.311,0.544,0.511,�k��,6.2,��
2024/05/22,04:30,0.494,0.759,0.480,0.935,0.681,0.310,0.546,0.510,�k�k��,6.3,��
2024/05/22,04:40,0.496,0.759,0.480,0.936,0.679,0.311,0.547,0.510,�k�k��,6.4,��
2024/05/22,04:50,0.494,0.759,0.479,0.937,0.680,0.311,0.545,0.513,�k�k��,6.5,��
2024/05/22,05:00,0.495,0.757,0.480,0.935,0.679,0.311,0.547,0.510,�k�k��,6.1,��
2024/05/22,05:10,0.495,0.760,0.478,0.937,0.681,0.309,0.546,0.511,�k�k��,6.8,��
2024/05/22,05:20,0.496,0.761,0.481,0.933,0.678,0.311,0.546,0.510,�k�k��,6.9,��
2024/05/22,05:30,0.496,0.759,0.478,0.935,0.679,0.310,0.545,0.511,�k��,5.9,��
2024/05/22,05:40,0.495,0.759,0.479,0.934,0.680,0.310,0.546,0.510,�k��,4.9,��
2024/05/22,05:50,0.496,0.761,0.479,0.936,0.680,0.310,0.545,0.510,�k�k��,4.7,��
2024/05/22,06:00,0.496,0.760,0.480,0.937,0.679,0.312,0.546,0.512,�k�k��,4.7,��
2024/05/22,06:10,0.495,0.761,0.480,0.939,0.680,0.310,0.547,0.511,�k�k��,3.8,��
2024/05/22,06:20,0.498,0.762,0.478,0.938,0.681,0.310,0.545,0.511,�k��,3.7,��
2024/05/22,06:30,0.497,0.761,0.479,0.935,0.682,0.312,0.546,0.511,�k��,4.2,��
2024/05/22,06:40,0.496,0.759,0.481,0.936,0.679,0.311,0.545,0.510,�k�k��,5.1,��
2024/05/22,06:50,0.497,0.758,0.481,0.938,0.681,0.312,0.545,0.510,�k�k��,4.9,��
2024/05/22,07:00,0.496,0.758,0.479,0.938,0.680,0.310,0.544,0.512,�k�k��,4.6,��
2024/05/22,07:10,0.497,0.758,0.479,0.935,0.680,0.310,0.545,0.510,�k�k��,4.2,��
2024/05/22,07:20,0.496,0.757,0.479,0.938,0.680,0.310,0.545,0.513,�k��,3.4,��
2024/05/22,07:30,0.496,0.756,0.481,0.937,0.681,0.309,0.542,0.510,�k�k��,3.1,��
2024/05/22,07:40,0.496,0.757,0.480,0.937,0.678,0.309,0.544,0.512,�k�k��,2.9,��
2024/05/22,07:50,0.497,0.759,0.480,0.938,0.680,0.309,0.545,0.511,�k�k��,2.6,��
2024/05/22,08:00,0.496,0.759,0.480,0.936,0.680,0.309,0.546,0.509,�k,2.3,��
2024/05/22,08:10,0.495,0.761,0.478,0.938,0.681,0.310,0.545,0.509,�k�k��,1.5,��
2024/05/22,08:20,0.495,0.758,0.480,0.937,0.680,0.309,0.546,0.510,�k�k��,2.0,��
2024/05/22,08:30,0.494,0.760,0.479,0.938,0.678,0.309,0.544,0.507,�k�k��,2.0,��
2024/05/22,08:40,0.495,0.758,0.478,0.938,0.679,0.309,0.544,0.509,�k�k��,2.8,��
2024/05/22,08:50,0.495,0.759,0.477,0.939,0.679,0.309,0.546,0.509,�k�k��,2.8,��
2024/05/22,09:00,0.494,0.760,0.478,0.936,0.679,0.310,0.545,0.510,�k�k��,3.4,��
2024/05/22,09:10,0.494,0.758,0.476,0.939,0.678,0.309,0.543,0.508,�k�k��,3.4,��
2024/05/22,09:20,0.494,0.761,0.477,0.938,0.679,0.310,0.544,0.510,�k�k��,2.9,��
2024/05/22,09:30,0.495,0.761,0.478,0.938,0.678,0.311,0.544,0.509,�k�k��,2.6,��
2024/05/22,09:40,0.496,0.760,0.478,0.937,0.679,0.311,0.543,0.510,�k�k��,3.0,��
2024/05/22,09:50,0.495,0.759,0.478,0.938,0.680,-,0.544,0.509,�k��,3.0,��
2024/05/22,10:00,0.495,0.759,0.478,0.940,0.680,-,0.543,0.509,�k��,3.1,��
2024/05/22,10:10,0.497,0.761,0.479,0.937,0.679,-,0.544,0.511,�k��,2.9,��
2024/05/22,10:20,0.496,0.762,0.478,0.937,0.680,-,0.545,0.510,�k��,3.2,��
2024/05/22,10:30,0.496,0.761,0.477,0.937,0.680,-,0.546,0.510,�k��,3.9,��
2024/05/22,10:40,0.494,0.761,0.479,0.939,0.682,-,0.545,0.509,�k��,3.5,��
2024/05/22,10:50,0.491,0.761,0.479,0.939,0.680,-,0.548,0.509,���k��,3.8,��
2024/05/22,11:00,0.497,0.759,0.480,0.938,0.683,-,0.546,0.511,���k��,4.1,��
2024/05/22,11:10,0.495,0.758,0.479,0.938,0.682,-,0.545,0.510,���k��,3.5,��
2024/05/22,11:20,0.497,0.762,0.478,0.935,0.684,-,0.545,0.511,���k��,3.6,��
2024/05/22,11:30,0.495,0.762,0.479,0.937,0.681,-,0.546,0.510,���k��,3.2,��
2024/05/22,11:40,0.498,0.759,0.480,0.937,0.683,-,0.546,0.511,��,3.9,��
2024/05/22,11:50,0.498,0.762,0.480,0.936,0.683,-,0.546,0.510,���k��,3.1,��
2024/05/22,12:00,0.498,0.761,0.481,0.935,0.682,-,0.546,0.508,��,3.2,��
2024/05/22,12:10,0.498,0.763,0.480,0.936,0.684,-,0.546,0.508,��,3.7,��
2024/05/22,12:20,0.497,0.760,0.481,0.936,0.684,-,0.545,0.507,��,3.7,��
2024/05/22,12:30,0.496,0.764,0.480,0.937,0.684,-,0.547,0.507,���쓌,4.3,��
2024/05/22,12:40,0.498,0.762,0.481,0.936,0.685,-,0.547,0.510,���쓌,3.3,��
2024/05/22,12:50,0.496,0.763,0.479,0.935,0.683,-,0.547,0.508,�쓌,4.7,��
2024/05/22,13:00,0.497,0.763,0.481,0.937,0.684,-,0.546,0.509,�쓌,4.7,��
2024/05/22,13:10,0.498,0.762,0.482,0.935,0.682,-,0.548,0.507,�쓌,4.9,��
2024/05/22,13:20,0.497,0.762,0.480,0.938,0.685,-,0.546,0.511,�쓌,4.4,��
2024/05/22,13:30,0.497,0.764,0.480,0.937,0.687,-,0.546,0.510,���쓌,5.0,��
2024/05/22,13:40,0.496,0.765,0.481,0.938,0.687,0.312,0.547,0.509,���쓌,3.9,��
2024/05/22,13:50,0.497,0.763,0.481,0.935,0.685,0.312,0.546,0.511,���쓌,4.2,��
2024/05/22,14:00,0.498,0.763,0.481,0.939,0.686,0.312,0.547,0.511,���쓌,4.2,��
2024/05/22,14:10,0.499,0.762,0.481,0.938,0.685,0.313,0.548,0.509,���쓌,4.9,��
2024/05/22,14:20,0.498,0.765,0.481,0.939,0.685,0.311,0.548,0.511,���쓌,4.0,��
2024/05/22,14:30,0.499,0.763,0.481,0.941,0.687,0.312,0.549,0.511,�쓌,4.0,��
2024/05/22,14:40,0.498,0.764,0.483,0.937,0.685,0.312,0.548,0.509,�쓌,5.3,��
2024/05/22,14:50,0.498,0.765,0.481,0.939,0.684,0.313,0.548,0.511,��쓌,5.9,��
2024/05/22,15:00,0.497,0.762,0.481,0.938,0.686,0.312,0.549,0.510,��쓌,4.7,��
2024/05/22,15:10,0.499,0.763,0.481,0.941,0.687,0.312,0.548,0.511,��쓌,5.9,��
2024/05/22,15:20,0.498,0.763,0.481,0.940,0.687,0.312,0.547,0.509,��쓌,6.7,��
2024/05/22,15:30,0.498,0.766,0.480,0.941,0.687,0.313,0.548,0.509,��쓌,6.7,��
2024/05/22,15:40,0.499,0.763,0.482,0.940,0.686,0.312,0.548,0.510,��쓌,6.1,��
2024/05/22,15:50,0.498,0.767,0.483,0.940,0.687,0.312,0.547,0.511,��쓌,7.4,��
2024/05/22,16:00,0.499,0.765,0.482,0.939,0.685,0.312,0.546,0.509,��쓌,8.8,��
2024/05/22,16:10,0.498,0.766,0.481,0.940,0.686,0.312,0.547,0.509,��쓌,8.0,��
2024/05/22,16:20,0.498,0.765,0.481,0.942,0.686,0.312,0.547,0.510,��쓌,7.9,��
2024/05/22,16:30,0.499,0.765,0.482,0.940,0.688,0.312,0.547,0.509,��쓌,8.8,��
2024/05/22,16:40,0.499,0.763,0.480,0.942,0.685,0.312,0.545,0.509,��쓌,9.3,��
2024/05/22,16:50,0.498,0.763,0.483,0.942,0.686,0.311,0.545,0.509,��쓌,7.8,��
2024/05/22,17:00,0.498,0.763,0.484,0.939,0.686,0.313,0.548,0.509,��쓌,8.3,��
2024/05/22,17:10,0.499,0.766,0.481,0.939,0.686,0.312,0.546,0.510,��,9.7,��
2024/05/22,17:20,0.499,0.766,0.483,0.941,0.686,0.311,0.545,0.509,��,8.7,��
2024/05/22,17:30,0.498,0.766,0.481,0.940,0.686,0.312,0.546,0.511,��쓌,11.3,��
2024/05/22,17:40,0.497,0.764,0.481,0.941,0.687,0.312,0.545,0.509,��,10.2,��
2024/05/22,17:50,0.498,0.762,0.479,0.940,0.685,0.313,0.546,0.510,��쓌,10.7,��
2024/05/22,18:00,0.497,0.765,0.482,0.941,0.686,0.313,0.545,0.512,��쓌,10.7,��
2024/05/22,18:10,0.499,0.765,0.482,0.944,0.686,0.313,0.546,0.512,��,10.2,��
2024/05/22,18:20,0.498,0.766,0.480,0.943,0.687,0.312,0.546,0.510,��쓌,11.4,��
2024/05/22,18:30,0.498,0.765,0.481,0.944,0.686,0.313,0.544,0.513,��,9.4,��
2024/05/22,18:40,0.498,0.767,0.481,0.943,0.687,0.311,0.544,0.512,��쓌,10.3,��
2024/05/22,18:50,0.500,0.765,0.480,0.945,0.685,0.311,0.545,0.513,��,9.6,��
2024/05/22,19:00,0.498,0.765,0.480,0.945,0.684,0.313,0.543,0.513,��,9.7,��
2024/05/22,19:10,0.498,0.768,0.481,0.943,0.686,0.312,0.544,0.514,��,8.5,��
2024/05/22,19:20,0.500,0.768,0.482,0.944,0.687,0.314,0.545,0.513,��,7.8,��
2024/05/22,19:30,0.497,0.766,0.481,0.946,0.688,0.313,0.547,0.512,��,7.4,��
2024/05/22,19:40,0.499,0.768,0.481,0.944,0.688,0.314,0.546,0.511,��,6.7,��
2024/05/22,19:50,0.500,0.768,0.484,0.944,0.687,0.313,0.545,0.513,��,7.7,��
2024/05/22,20:00,0.500,0.768,0.484,0.944,0.687,0.313,0.545,0.513,��,7.5,��
2024/05/22,20:10,0.500,0.766,0.484,0.943,0.689,0.314,0.545,0.511,��,6.0,��
2024/05/22,20:20,0.501,0.767,0.484,0.945,0.689,0.314,0.546,0.511,��,7.2,��
2024/05/22,20:30,0.500,0.769,0.484,0.943,0.688,0.313,0.547,0.512,��,6.1,��
2024/05/22,20:40,0.501,0.768,0.482,0.944,0.687,0.314,0.548,0.512,��,6.3,��
2024/05/22,20:50,0.499,0.767,0.484,0.943,0.690,0.313,0.545,0.513,��,6.7,��
2024/05/22,21:00,0.501,0.768,0.483,0.942,0.692,0.313,0.546,0.513,��,6.2,��
2024/05/22,21:10,0.501,0.768,0.482,0.943,0.690,0.314,0.546,0.512,��,6.4,��
2024/05/22,21:20,0.500,0.769,0.485,0.944,0.689,0.314,0.547,0.513,��,7.3,��
2024/05/22,21:30,0.500,0.768,0.483,0.945,0.687,0.314,0.547,0.512,��,6.8,��
2024/05/22,21:40,0.500,0.767,0.483,0.944,0.688,0.314,0.550,0.512,��,6.6,��
2024/05/22,21:50,0.502,0.766,0.484,0.947,0.691,0.315,0.548,0.513,��,6.9,��
2024/05/22,22:00,0.500,0.769,0.483,0.945,0.688,0.314,0.548,0.512,��,7.4,��
2024/05/22,22:10,0.500,0.767,0.483,0.944,0.689,0.313,0.547,0.512,��,7.7,��
2024/05/22,22:20,0.501,0.766,0.482,0.945,0.691,0.313,0.548,0.511,��,7.1,��
2024/05/22,22:30,0.500,0.769,0.483,0.945,0.688,0.313,0.548,0.511,��,8.9,��
2024/05/22,22:40,0.499,0.768,0.484,0.943,0.688,0.314,0.550,0.510,��,8.8,��
2024/05/22,22:50,0.500,0.769,0.483,0.944,0.690,0.314,0.548,0.512,��,9.6,��
2024/05/22,23:00,0.500,0.769,0.483,0.945,0.690,0.314,0.550,0.511,��,7.9,��
2024/05/22,23:10,0.502,0.767,0.483,0.945,0.689,0.315,0.548,0.512,��,8.8,��
2024/05/22,23:20,0.500,0.768,0.483,0.945,0.689,0.313,0.549,0.513,��,7.1,��
2024/05/22,23:30,0.500,0.769,0.482,0.945,0.690,0.315,0.548,0.511,��,5.2,��
2024/05/22,23:40,0.500,0.766,0.483,0.944,0.690,0.313,0.548,0.512,��,6.3,��
2024/05/22,23:50,0.500,0.768,0.485,0.946,0.689,0.315,0.547,0.513,��,7.2,��
